Regional Weather Roundup
Issued by NWS

Home | Current Version | Previous Version | Text Only | Print | Product List | Glossary On
Versions: 1 2 3 4 5 6 7 8 9 10 11 12 13 14 15 16 17 18 19 20 21 22 23 24 25 26 27 28 29 30 31 32 33 34 35 36 37 38 39 40 41 42 43 44 45 46 47 48 49 50
000
ASHW40 PHFO 260543
RWRHI

WEATHER ROUNDUP FOR HAWAII
NATIONAL WEATHER SERVICE HONOLULU HI
700 PM HST THU DEC 25 2014

THIS IS AN AUTOMATED REPORT THAT HAS NOT BEEN QUALITY CONTROLLED.

NOTE..."FAIR" INDICATES FEW OR NO CLOUDS BELOW 12,000 FEET WITH NO
SIGNIFICANT WEATHER AND/OR OBSTRUCTIONS TO VISIBILITY.

* - THESE SITES REPORT LIMITED FIELDS

HIZ001>004-260600-
KAUAI-NIIHAU-

CITY           SKY/WX    TMP DP  RH WIND       PRES   REMARKS
LIHUE APT      PTCLDY    72  60  66 W5        29.79R
PORT ALLEN*      N/A     72 N/A N/A NW13        N/A
POIPU*           N/A     72 N/A N/A NE1         N/A
PRINCEVILLE*     N/A     70 N/A N/A MISG        N/A
KOKOLE POINT*  NOT AVBL
MOLOAA DAIRY*  NOT AVBL
WAIMEA HTS*      N/A     70  57  64 NW3G10      N/A
PUU OPAE*        N/A     63  57  82 NW3G18      N/A
PUU LUA*       NOT AVBL
MAKAHA RIDGE*  NOT AVBL
$$

HIZ005>011-260600-
OAHU-

CITY           SKY/WX    TMP DP  RH WIND       PRES   REMARKS
HONOLULU       PTCLDY    73  65  75 N6        29.78R
KALAELOA       PTCLDY    72  62  71 VRB3      29.79R
KANEOHE MCB    PTCLDY    73  64  73 W6        29.78R
WHEELER FIELD  RAIN      68  64  88 NW7       29.80R
BELLOWS*         N/A    N/A N/A N/A W3          N/A
KAHUKU*          N/A    N/A N/A N/A W3G13       N/A
WHEELER*       NOT AVBL
WAIANAE HARBOR NOT AVBL
DILLINGHAM*      N/A     70  66  88 W2G8        N/A
KAHUKU TRN*      N/A     70  64  83 W5G16       N/A
KAWAILOA*        N/A     66  64  94 NW3G10      N/A
KII*             N/A     72  64  78 W12         N/A
MAKUA RANGE*     N/A     72  64  78 NE3G13      N/A
OAHU FOREST NW   N/A     63 -15   4 CALM        N/A
SCHOFIELD BRK*   N/A     68  63  83 MISG        N/A
SCHOFIELD S*   NOT AVBL
WAIANAE VLY*     N/A     66  61  82 VRB3G12     N/A
KUAOKALA*        N/A     70  63  78 CALM        N/A
HONOULIUULI*   NOT AVBL
MOKUOLOE IS*     N/A    N/A N/A N/A MISG        N/A
PALEHUA*         N/A     73  63  68 CALM        N/A
WAIAWA PHB*    NOT AVBL
$$

HIZ012>013-260600-
MOLOKAI-

CITY           SKY/WX    TMP DP  RH WIND       PRES   REMARKS
MOLOKAI AIRPT  MOCLDY    70  64  81 CALM      29.80R
KALAUPAPA      NOT AVBL
MAKAPULAPAI*     N/A     72  64  78 W5G10       N/A
MOLOKAI 1*       N/A     63  63 100 E1          N/A
PUU ALII*        N/A     56  55  97 W1G7        N/A
$$

HIZ016-260600-
KAHOOLAWE-

CITY           SKY/WX    TMP DP  RH WIND       PRES   REMARKS
KAHOOLAWE*       N/A     66 N/A N/A NW6         N/A
HAKIOAWA*        N/A     68  64  87 MISG      30.22
HONOKANAIA*      N/A     74  64  70 W12         N/A
KANELOA*         N/A     73  66  78 W10G16      N/A
KEALIALALO*    NOT AVBL
LUA MAKIKA*    NOT AVBL
$$

HIZ014>015-260600-
LANAI-

CITY           SKY/WX    TMP DP  RH WIND       PRES   REMARKS
LANAI CITY     FAIR      66  63  88 NW5       29.85R
LANAI 1*         N/A     66  66 100 W3G12       N/A
$$

HIZ017>028-260600-
MAUI-

CITY           SKY/WX    TMP DP  RH WIND       PRES   REMARKS
KAHULUI        PTCLDY    70  64  81 S6        29.78R
KAPALUA-W MAUI NOT AVBL
HANA AIRPORT   CLEAR     64  64 100 S3        29.82R
HANA*            N/A     68 N/A N/A S3          N/A
HALEAKALA SUMM   N/A     48   7  18 W16G38      N/A
MAALAEA BAY*   NOT AVBL
HALEAKALA*     NOT AVBL
KAUPO GAP*       N/A     54  46  76 N8          N/A
KULA 1*          N/A    N/A N/A N/A E5G12       N/A
$$

HIZ023>026-260600-
BIG ISLAND OF HAWAII COAST AND LOWER SLOPES-

CITY           SKY/WX    TMP DP  RH WIND       PRES   REMARKS
KAILUA KONA    CLEAR     76  64  66 SW5       29.78R
HILO           LGT RAIN  72  69  90 SW7       29.77R
HONOKAA*       NOT AVBL
KAWAIHAE MWT*    N/A     75 N/A N/A SW2         N/A
KAWAIHAE*        N/A     75 N/A N/A SW2         N/A
SOUTH POINT*     N/A     70 N/A N/A W14G21      N/A
UPOLU AIRPORT*   N/A    N/A N/A N/A SW5         N/A
KAMUELA*       MOCLDY    61  59  94 W7        29.90R
HAKALAU*         N/A     50  48  94 N3G12       N/A
KALOKO-HONOKO*   N/A     72  61  68 NW2       29.78R
PALI 2*          N/A     63  57  82 NE12G18     N/A
KEALAKOMO*       N/A     72  63  73 SE5G10      N/A
KAUPULEHU*       N/A     68  57  68 SW5         N/A
KAPAPALA*        N/A     66  58  75 N5G12       N/A
LOWER KAHUKU*    N/A     61  57  88 N1          N/A
PUHE CS*       NOT AVBL
PUHO CS*         N/A     74  63  68 N1          N/A
PTA KEAMUKU*     N/A     61  59  94 CALM        N/A
WAIKOLOA*        N/A     72  61  68 W5          N/A
$$

HIZ027>028-260600-
BIG ISLAND OF HAWAII INTERIOR AND SUMMMITS-

CITY           SKY/WX    TMP DP  RH WIND       PRES   REMARKS
BRADSHAW FIELD CLEAR     49  47  91 SE3       30.10R
MK VISITOR CEN NOT AVBL
MAUNA KEA*       N/A     32  -9  16 NW75        N/A  WCI  12
MAUNA LOA*       N/A     43  -6  13 MISG        N/A
MAUNA LOA 1*   NOT AVBL
PTA KIPUKA*      N/A     54  50  87 S3G10       N/A
PTA RANGE 17*    N/A     52  50  93 SE2         N/A
PTA WEST*        N/A     57  55  94 NW1         N/A
NENE CABIN*      N/A    N/A N/A N/A W5G14       N/A
AHUMOA*          N/A     57  10  15 SE10G18     N/A
PTA PORTABLE*  NOT AVBL
PUU MALI*      NOT AVBL
$$

HIC003-260600-
NORTHWEST ISLANDS-

CITY           SKY/WX    TMP DP  RH WIND       PRES   REMARKS
MIDWAY ISLAND  MOCLDY    72  66  83 SW10      30.04R
MIDWAY NOS*    NOT AVBL
FRENCH FRIGATE NOT AVBL
$$

PHZ110>124-180-260600-
BUOY REPORTS

STATION/POSITION TIME  TEMP    WIND        PRES    WAVE   SWELL
                       AIR SEA DIR/SP/G            HT/PER HT/DIR
                 (UTC) (F)     (DEG/KT/KT) (MB)    (FT/S) (FT/D)
BUOY 51001       NOT AVBL
BUOY 51101       0500   70 76  330/ 19/ 21 1009.4R  12/11   7/ 40
BUOY 51100       0500   74 74  250/ 16/ 21 1005.5R
BUOY 51003       0500   75 79  360/ 12/ 16 1009.2R   8/11   8
BUOY 51004       0450   78 78  260/  4/  6 1008.9R   9/ 9   8/ 80
BARBERS PT BUOY  NOT AVBL
WAIMEA BAY BUOY  0500      77                N/A     8/10   3/360
KAILUA BAY BUOY  0500      77                N/A     7/11   3/ 40
LANAI BUOY       0500      78                N/A     3/13   2/280
BARBERS PT 2     0500      78                N/A     4/10   2/280
PAUWELA MAUI     0500      77                N/A    10/11   7/ 30
HILO             0500      78                N/A     9/ 9   3/ 10
KANEOHE BAY BUOY 0500      76                N/A     7/11   5/ 40
HANALEI KAUAI    NOT AVBL
KAHULUI HARBOR   0500   73 77  230/  2/  5 1008.6R
HONOLULU HARBOR  0500   74     330/  5/  8 1009.0R
KILO NALU        NOT AVBL
HILO HARBOR      0500   72     210/  4/  5 1008.0R
MOKUOLOE         0500   71 76  270/  2/  6 1008.9R
NAWILIWILI       0500      78                N/A
WHOTS BUOY       NOT AVBL
BUOY 51028       NOT AVBL
$$

......................KEY........................................
  SKY/WX - SKY CONDITIONS/PRESENT WEATHER
  TMP    - TEMPERATURE IN FAHRENHEIT
  DWPT   - DEWPOINT IN FAHRENHEIT
  RH     - RELATIVE HUMIDITY IN PERCENT
  WIND   - DIRECTION AND SPEED /MPH FOR ISLANDS...KTS FOR BUOYS/
  PRES   - MEAN SEA LEVEL PRESSURE IN INCHES OF HG
  VSB    - VISIBILITY IN MILES
  HX     - HEAT INDEX
  WCI    - WIND CHILL INDEX
  VRB    - VARIABLE WIND DIRECTION
  N/A    - NOT AVAILABLE


USA.gov is the U.S. government's official web portal to all federal, state and local government web resources and services.